KK4OHF Weather Reports


time (UTC)temp
C
wind
direction
speed
KPH
gust
KPH
rain 1hr
cm
rain 24hr
cm
rain mn
cm
humidity
%
barometer
mb
20260508214506 20 340 0.0 0.0 0.00 0.00 0.00 60 1013.2
20260508214005 20 327 0.0 0.0 0.00 0.00 0.00 60 1013.2
20260508213505 20 50 0.0 0.0 0.00 0.00 0.00 62 1013.2
20260508213005 20 0 0.0 0.0 0.00 0.00 0.00 60 1013.2
20260508212506 20 338 0.0 0.0 0.00 0.00 0.00 58 1013.2
20260508212005 20 96 0.0 1.6 0.00 0.00 0.00 58 1013.2
20260508211504 20 136 0.0 0.0 0.00 0.00 0.00 59 1013.2
20260508211007 20 139 0.0 0.0 0.00 0.00 0.00 58 1013.2
20260508210505 20 96 0.0 0.0 0.00 0.00 0.00 59 1013.2
20260508210006 20 155 0.0 0.0 0.00 0.00 0.00 59 1013.1
20260508205505 20 74 0.0 0.0 0.00 0.00 0.00 58 1013.1
20260508205006 21 156 0.0 0.0 0.00 0.00 0.00 57 1013.1
20260508204505 21 186 0.0 0.0 0.00 0.00 0.00 54 1013.1
20260508203505 21 117 0.0 0.0 0.00 0.00 0.00 55 1013.1
20260508202505 21 190 0.0 0.0 0.00 0.00 0.00 53 1013.1
20260508202006 21 150 0.0 0.0 0.00 0.00 0.00 54 1013.1
20260508201505 21 133 0.0 0.0 0.00 0.00 0.00 52 1013.1
20260508201005 21 136 0.0 3.2 0.00 0.00 0.00 51 1013.1
20260508200005 21 60 0.0 0.0 0.00 0.00 0.00 54 1013.1
20260508195506 21 114 0.0 0.0 0.00 0.00 0.00 52 1013.1
20260508195005 21 114 0.0 0.0 0.00 0.00 0.00 51 1013.1
20260508194506 21 114 0.0 0.0 0.00 0.00 0.00 53 1013.1
20260508193505 21 105 0.0 0.0 0.00 0.00 0.00 51 1013.6
20260508193006 21 118 0.0 0.0 0.00 0.00 0.00 50 1013.9
20260508192505 21 101 0.0 0.0 0.00 0.00 0.00 50 1013.9
20260508191505 21 103 0.0 0.0 0.00 0.00 0.00 50 1013.9
20260508191005 22 108 0.0 0.0 0.00 0.00 0.00 51 1013.9
20260508185505 22 127 0.0 3.2 0.00 0.00 0.00 50 1015.2
20260508184505 22 28 0.0 4.8 0.00 0.00 0.00 51 1015.2
20260508184007 21 262 1.6 4.8 0.00 0.00 0.00 48 1015.2
20260508183505 22 82 0.0 0.0 0.00 0.00 0.00 51 1015.2
20260508183006 22 201 0.0 0.0 0.00 0.00 0.00 46 1015.2
20260508182505 22 250 0.0 0.0 0.00 0.00 0.00 46 1015.2
20260508182007 22 196 0.0 0.0 0.00 0.00 0.00 50 1015.2
20260508181506 22 77 0.0 0.0 0.00 0.00 0.00 50 1015.2
20260508180504 21 12 0.0 0.0 0.00 0.00 0.00 47 1015.2
20260508180005 22 101 0.0 0.0 0.00 0.00 0.00 47 1015.2
20260508175505 21 313 0.0 0.0 0.00 0.00 0.00 50 1015.2
20260508175005 21 146 0.0 0.0 0.00 0.00 0.00 49 1015.2
20260508174505 21 24 0.0 0.0 0.00 0.00 0.00 48 1015.2
20260508174005 21 352 0.0 0.0 0.00 0.00 0.00 48 1015.2
20260508173005 21 22 0.0 0.0 0.00 0.00 0.00 49 1015.2
20260508172505 21 346 0.0 0.0 0.00 0.00 0.00 46 1015.2
20260508172005 21 277 0.0 1.6 0.00 0.00 0.00 46 1015.2
20260508171005 21 19 0.0 0.0 0.00 0.00 0.00 48 1017.3
20260508170506 20 15 0.0 0.0 0.00 0.00 0.00 48 1017.3
20260508170006 21 38 0.0 0.0 0.00 0.00 0.00 51 1017.3
20260508165505 21 107 0.0 1.6 0.00 0.00 0.00 47 1017.3
20260508165005 21 91 0.0 3.2 0.00 0.00 0.00 53 1017.3
20260508164506 21 19 0.0 0.0 0.00 0.00 0.00 51 1017.3
20260508164005 20 224 0.0 0.0 0.00 0.00 0.00 51 1017.3
20260508163505 20 134 0.0 0.0 0.00 0.00 0.00 54 1017.3
20260508162505 19 45 0.0 0.0 0.00 0.00 0.00 53 1017.3
20260508162006 20 19 0.0 0.0 0.00 0.00 0.00 50 1017.3
20260508161505 20 123 0.0 0.0 0.00 0.00 0.00 52 1017.3
20260508161005 20 120 1.6 9.7 0.00 0.00 0.00 49 1017.3
20260508160505 19 93 0.0 0.0 0.00 0.00 0.00 55 1017.3
20260508160005 18 11 0.0 0.0 0.00 0.00 0.00 52 1017.3
20260508155004 19 5 0.0 0.0 0.00 0.00 0.00 51 1017.3
20260508154505 19 232 0.0 0.0 0.00 0.00 0.00 55 1017.3
20260508154005 18 136 0.0 0.0 0.00 0.00 0.00 62 1017.3
20260508153504 18 144 0.0 0.0 0.00 0.00 0.00 62 1017.3
20260508152005 17 144 0.0 0.0 0.00 0.03 0.00 61 1017.3
20260508151504 17 121 0.0 0.0 0.00 0.03 0.00 61 1017.3
20260508151006 17 38 0.0 0.0 0.00 0.03 0.00 65 1017.3
20260508150506 17 38 0.0 0.0 0.00 0.03 0.00 67 1017.3
20260508150005 17 38 0.0 0.0 0.00 0.03 0.00 67 1017.3
20260508145505 17 355 0.0 0.0 0.00 0.03 0.00 67 1017.3
20260508144505 16 115 0.0 0.0 0.00 0.03 0.00 69 1017.3
20260508144005 16 115 0.0 0.0 0.00 0.05 0.00 69 1017.3
20260508143505 16 115 0.0 0.0 0.00 0.05 0.00 72 1017.3
20260508143005 16 115 0.0 0.0 0.00 0.05 0.00 73 1017.3
20260508142505 16 115 0.0 0.0 0.00 0.05 0.00 75 1017.3
20260508142005 16 115 0.0 0.0 0.00 0.05 0.00 77 1017.3
20260508141505 15 115 0.0 0.0 0.00 0.05 0.00 75 1017.3
20260508141005 15 134 0.0 0.0 0.00 0.08 0.00 78 1017.3
20260508140505 15 86 0.0 0.0 0.00 0.08 0.00 82 1017.3
20260508140007 15 86 0.0 0.0 0.00 0.08 0.00 83 1017.3
20260508135506 14 82 0.0 0.0 0.00 0.08 0.00 83 1017.3
20260508135005 14 15 0.0 0.0 0.00 0.08 0.00 83 1017.3
20260508134505 13 15 0.0 0.0 0.00 0.13 0.00 83 1017.3
20260508134005 13 15 0.0 0.0 0.00 0.13 0.00 83 1017.3
20260508133506 13 15 0.0 0.0 0.00 0.13 0.00 83 1017.3
20260508133005 13 15 0.0 0.0 0.00 0.13 0.00 86 1017.3
20260508131005 12 290 0.0 0.0 0.00 0.13 0.00 91 1017.3
20260508130005 12 290 0.0 0.0 0.00 0.13 0.00 91 1015.9
20260508125504 11 290 0.0 0.0 0.00 0.15 0.00 92 1015.9
20260508125005 11 290 0.0 0.0 0.00 0.15 0.00 92 1015.9
20260508124505 11 290 0.0 0.0 0.00 0.15 0.00 92 1015.9
20260508124005 11 290 0.0 0.0 0.00 0.15 0.00 92 1015.9
20260508123006 11 290 0.0 0.0 0.00 0.15 0.00 93 1015.9
20260508122506 10 290 0.0 0.0 0.00 0.15 0.00 93 1015.9
20260508122005 10 290 0.0 0.0 0.00 0.15 0.00 93 1015.9
20260508121505 10 290 0.0 0.0 0.00 0.15 0.00 93 1015.9
20260508121005 9 290 0.0 0.0 0.00 0.15 0.00 93 1015.9
20260508120505 9 290 0.0 0.0 0.00 0.15 0.00 93 1015.9
20260508120006 9 290 0.0 0.0 0.00 0.15 0.00 93 1015.9
20260508115505 9 290 0.0 0.0 0.00 0.15 0.00 93 1015.9
20260508115005 8 290 0.0 0.0 0.00 0.18 0.00 93 1015.9
20260508114504 8 290 0.0 0.0 0.00 0.18 0.00 92 1015.9
20260508114006 8 290 0.0 0.0 0.00 0.18 0.00 92 1015.9
20260508113504 8 290 0.0 0.0 0.00 0.18 0.00 92 1015.9
20260508113006 8 290 0.0 0.0 0.00 0.18 0.00 92 1015.9
20260508112505 8 290 0.0 0.0 0.00 0.18 0.00 92 1015.9
20260508112005 8 290 0.0 0.0 0.00 0.18 0.00 92 1014.2
20260508111505 8 290 0.0 0.0 0.00 0.18 0.00 92 1014.2
20260508111005 8 290 0.0 0.0 0.00 0.18 0.00 92 1014.2
20260508110505 8 290 0.0 0.0 0.00 0.18 0.00 92 1014.2
20260508105505 8 290 0.0 0.0 0.00 0.18 0.00 92 1014.2
20260508105005 8 290 0.0 0.0 0.00 0.18 0.00 92 1014.2
20260508104504 8 290 0.0 0.0 0.00 0.20 0.00 92 1014.2
20260508103505 9 290 0.0 0.0 0.00 0.20 0.00 92 1014.2
20260508102505 9 290 0.0 0.0 0.00 0.20 0.00 92 1014.2
20260508102005 9 290 0.0 0.0 0.00 0.20 0.00 92 1014.2
20260508101505 9 290 0.0 0.0 0.00 0.20 0.00 92 1014.2
20260508101005 9 290 0.0 0.0 0.00 0.23 0.00 92 1014.2
20260508100505 9 290 0.0 0.0 0.00 0.25 0.00 92 1014.2
20260508100005 9 290 0.0 0.0 0.00 0.25 0.00 92 1014.2
20260508095506 9 290 0.0 0.0 0.00 0.25 0.00 92 1014.2
20260508095005 9 290 0.0 0.0 0.00 0.25 0.00 92 1014.2
20260508094505 10 290 0.0 0.0 0.00 0.25 0.00 92 1014.2
20260508093505 10 290 0.0 0.0 0.00 0.25 0.00 92 1014.2
20260508093006 10 290 0.0 0.0 0.00 0.25 0.00 92 1014.2
20260508092505 10 290 0.0 0.0 0.00 0.25 0.00 92 1014.2
20260508092005 10 290 0.0 0.0 0.00 0.25 0.00 92 1014.2
20260508091506 10 290 0.0 0.0 0.00 0.25 0.00 92 1014.2
20260508091006 10 290 0.0 0.0 0.00 0.25 0.00 92 1014.2
20260508090505 10 290 0.0 0.0 0.00 0.25 0.00 92 1014.2
20260508090005 10 290 0.0 0.0 0.00 0.25 0.00 92 1014.2
20260508085505 10 290 0.0 0.0 0.00 0.25 0.00 92 1014.2
20260508085006 10 290 0.0 0.0 0.00 0.25 0.00 92 1014.2
20260508084505 10 290 0.0 0.0 0.00 0.25 0.00 92 1014.2
20260508084005 10 290 0.0 0.0 0.00 0.25 0.00 92 1014.2
20260508083506 11 290 0.0 0.0 0.00 0.28 0.00 92 1014.2
20260508083006 11 290 0.0 0.0 0.00 0.28 0.00 92 1013.8
20260508082506 11 290 0.0 0.0 0.00 0.33 0.00 92 1013.8
20260508082005 11 290 0.0 0.0 0.00 0.36 0.00 91 1013.8
20260508081505 11 290 0.0 0.0 0.00 0.41 0.00 91 1013.8
20260508081006 11 290 0.0 0.0 0.00 0.43 0.00 92 1013.8
20260508080505 11 290 0.0 0.0 0.00 0.48 0.00 92 1013.8
20260508080005 11 290 0.0 0.0 0.00 0.51 0.00 91 1013.8
20260508075505 11 290 0.0 0.0 0.00 0.58 0.00 91 1013.8
20260508075006 11 290 0.0 0.0 0.00 0.61 0.00 91 1013.8
20260508074505 11 290 0.0 0.0 0.00 0.64 0.00 91 1013.8
20260508074005 11 290 0.0 0.0 0.00 0.66 0.00 91 1013.8
20260508073505 11 290 0.0 0.0 0.00 0.71 0.00 91 1013.8
20260508073005 11 290 0.0 0.0 0.00 0.74 0.00 91 1013.8
20260508072005 11 290 0.0 0.0 0.00 0.81 0.00 91 1013.8
20260508071504 11 290 0.0 0.0 0.00 0.84 0.00 91 1013.8
20260508071006 11 290 0.0 0.0 0.00 0.89 0.00 91 1014.5
20260508070505 11 290 0.0 0.0 0.00 0.94 0.00 91 1014.5
20260508070005 11 290 0.0 0.0 0.00 0.97 0.00 91 1014.5
20260508065006 12 290 0.0 0.0 0.00 1.24 0.00 91 1014.5
20260508064505 12 290 0.0 0.0 0.00 1.35 0.00 91 1014.5
20260508064005 12 290 0.0 0.0 0.00 1.35 0.00 91 1014.5
20260508063506 12 290 0.0 0.0 0.00 1.37 0.00 91 1014.5
20260508063007 12 290 0.0 0.0 0.00 1.37 0.00 91 1014.5
20260508062505 12 290 0.0 0.0 0.00 1.40 0.00 91 1014.5
20260508061505 12 290 0.0 0.0 0.00 1.40 0.00 91 1014.5
20260508061007 12 290 0.0 0.0 0.00 1.40 0.00 91 1014.6
20260508060506 12 290 0.0 0.0 0.00 1.40 0.00 91 1014.6
20260508060005 12 290 0.0 0.0 0.00 1.40 0.00 91 1014.6
20260508055504 12 290 0.0 0.0 0.00 1.40 0.00 91 1014.6
20260508055005 12 290 0.0 0.0 0.00 1.40 0.00 91 1014.6
20260508054505 12 290 0.0 0.0 0.00 1.42 0.00 91 1014.6
20260508054005 12 290 0.0 0.0 0.00 1.42 0.00 91 1014.6
20260508053005 12 290 0.0 0.0 0.00 1.45 0.00 91 1011.9
20260508052505 12 290 0.0 0.0 0.00 1.50 0.00 91 1011.9
20260508052006 12 290 0.0 0.0 0.00 1.57 0.00 91 1011.9
20260508051505 12 290 0.0 0.0 0.00 1.57 0.00 91 1011.9
20260508051005 12 290 0.0 3.2 0.00 1.57 0.00 91 1011.9
20260508050505 12 290 0.0 3.2 0.00 1.57 0.00 90 1011.9
20260508050005 12 290 0.0 0.0 0.00 1.57 0.00 90 1011.9
20260508045505 13 290 0.0 0.0 0.00 1.57 0.00 90 1011.9
20260508044505 13 290 0.0 0.0 0.00 1.57 0.00 90 1011.9
20260508044005 13 290 0.0 0.0 0.00 1.57 0.00 90 1011.9
20260508043006 13 290 0.0 0.0 0.00 1.60 0.00 90 1011.9
20260508042505 13 290 0.0 0.0 0.00 1.60 0.00 90 1011.9
20260508041505 13 290 0.0 0.0 0.00 1.60 0.00 90 1011.9
20260508041005 13 290 0.0 0.0 0.00 1.60 0.00 90 1011.9
20260508040005 13 290 0.0 0.0 0.00 1.60 0.00 90 1011.9
20260508034505 13 290 0.0 0.0 0.00 1.60 1.37 89 1011.9
20260508034005 13 290 0.0 0.0 0.00 1.60 1.37 89 1011.9
20260508032505 14 290 0.0 0.0 0.00 1.60 1.37 89 1011.9
20260508032005 14 290 0.0 0.0 0.00 1.60 1.37 89 1011.9
20260508031505 14 290 0.0 0.0 0.00 1.60 1.37 88 1011.9
20260508031005 14 290 0.0 0.0 0.00 1.60 1.37 88 1011.9
20260508030506 15 290 0.0 0.0 0.00 1.60 1.37 88 1011.9
20260508030005 15 290 0.0 0.0 0.00 1.60 1.37 88 1011.9
20260508025505 15 290 0.0 0.0 0.00 1.60 1.37 88 1011.9
20260508024005 15 290 0.0 0.0 0.00 1.63 1.37 87 1011.9
20260508023505 15 290 0.0 0.0 0.00 1.63 1.37 87 1011.9
20260508023006 15 290 0.0 0.0 0.00 1.63 1.37 87 1011.9
20260508022505 15 290 0.0 0.0 0.00 1.63 1.37 87 1011.9
20260508021005 16 290 0.0 0.0 0.00 1.68 1.37 86 1011.9
20260508020005 16 290 0.0 0.0 0.00 1.68 1.37 85 1011.9
20260508015506 16 290 0.0 0.0 0.00 1.68 1.37 85 1011.9
20260508015006 16 290 0.0 1.6 0.00 1.68 1.37 85 1011.9
20260508014504 16 290 0.0 0.0 0.00 1.68 1.37 84 1011.9
20260508013505 16 290 0.0 0.0 0.00 1.68 1.37 84 1011.9
20260508013006 16 290 0.0 1.6 0.00 1.68 1.37 84 1011.9
20260508012505 16 290 0.0 1.6 0.00 1.68 1.37 83 1011.9
20260508012006 16 290 0.0 3.2 0.00 1.68 1.37 83 1011.9
20260508011505 17 290 0.0 1.6 0.00 1.70 1.37 83 1011.9
20260508011005 17 290 0.0 1.6 0.00 1.78 1.37 83 1011.9
20260508010506 17 290 0.0 0.0 0.00 1.98 1.37 83 1011.9
20260508010007 17 290 0.0 1.6 0.00 1.98 1.37 82 1011.9
20260508005506 17 290 0.0 0.0 0.00 1.98 1.37 82 1011.9
20260508005005 17 290 0.0 0.0 0.00 1.98 1.37 82 1011.9
20260508004005 17 290 0.0 1.6 0.00 1.98 1.37 81 1011.9
20260508003505 17 290 0.0 3.2 0.00 1.98 1.37 80 1011.9
20260508003006 17 290 0.0 4.8 0.00 1.98 1.37 79 1011.9
20260508002505 17 296 1.6 3.2 0.00 1.98 1.37 79 1011.9
20260508002005 17 288 1.6 3.2 0.00 1.98 1.37 78 1011.9
20260508001505 18 297 1.6 8.0 0.00 1.98 1.37 77 1011.9
20260508001006 18 288 1.6 4.8 0.00 1.98 1.37 77 1011.9
20260508000506 18 286 3.2 8.0 0.00 1.98 1.37 76 1011.9
20260508000005 18 251 1.6 9.7 0.00 1.98 1.37 76 1011.9
20260507235007 18 274 4.8 9.7 0.00 1.98 1.37 74 1011.9
20260507234506 18 303 3.2 9.7 0.00 1.98 1.37 74 1011.9
20260507233505 18 311 3.2 9.7 0.00 1.98 1.37 74 1011.9
20260507233006 18 273 4.8 9.7 0.00 1.98 1.37 74 1011.9
20260507232506 18 298 3.2 12.9 0.00 1.98 1.37 74 1011.9
20260507232006 18 320 4.8 12.9 0.00 1.98 1.37 74 1011.9
20260507231004 19 290 4.8 14.5 0.00 1.98 1.37 73 1011.9
20260507230506 19 288 4.8 14.5 0.00 1.98 1.37 73 1011.9
20260507230005 19 284 4.8 16.1 0.00 1.98 1.37 74 1011.9
20260507225505 19 293 4.8 19.3 0.00 1.98 1.37 74 1011.9
20260507225006 19 321 3.2 19.3 0.00 1.98 1.37 75 1011.9
20260507224505 19 297 4.8 12.9 0.00 1.98 1.37 74 1011.9
20260507224006 19 277 3.2 9.7 0.00 1.98 1.37 74 1011.9
20260507223506 19 273 4.8 12.9 0.00 1.98 1.37 74 1011.9
20260507223006 20 286 4.8 19.3 0.00 1.98 1.37 74 1011.9
20260507222505 20 298 1.6 11.3 0.00 1.98 1.37 76 1011.9
20260507221505 20 297 3.2 12.9 0.00 1.98 1.37 76 1011.9
20260507221005 20 13 8.0 16.1 0.00 1.98 1.37 75 1011.9
20260507220505 20 346 6.4 12.9 0.00 1.98 1.37 75 1011.9
20260507220005 20 296 3.2 19.3 0.00 1.98 1.37 76 1011.9
20260507215506 20 307 4.8 19.3 0.00 1.98 1.37 77 1011.9
20260507215005 20 275 4.8 16.1 0.00 1.98 1.37 77 1011.9